Flag for Brazil Weather past 2 weeks in Pirassununga, São Paulo, Brazil

Now
86 °F

Scattered clouds.


Feels Like: 91 °F
Forecast: 72 / 83 °F
Wind: 9 mph from Northwest

Location: Pirassununga Airport

Current Time: Mar 31, 2015 at 3:48:33 PM

Latest Report: Mar 31, 2015 at 3:00 PM


Visibility: N/A

Pressure: 29.95 "Hg

Humidity: 59%

Dew point: 70 °F

Location of PirassunungaLocation

Historic Weather in Pirassununga — Graph

°F

Pirassununga temperature yesterday

Maximum temperature yesterday: 81 °F (at 11:00 AM)
Minimum temperature yesterday: 70 °F (at 6:00 AM)
Average temperature yesterday: 74 °F

Past Weeks' High & Low Weather Summary

 TemperatureHumidityPressure
High91 °F (Mar 28, 4:00 PM)100% (Mar 19, 6:00 AM)30.18 "Hg (Mar 19, 6:00 AM)
Low63 °F (Mar 24, 6:00 AM)43% (Mar 25, 3:00 PM)29.83 "Hg (Mar 21, 4:00 PM)
Average76 °F80%30.03 "Hg
* Reported Mar 16 2:00 PM — Mar 31 2:00 PM, Pirassununga, Weather by CustomWeather, © 2015

Note: Actual official high and low records may vary slightly from our data, if they occured in-between our weather recording intervals... More about our weather records

Advertising

Pirassununga weather history for previous 24 hours

 ConditionsComfort  
Time TempWeatherWind HumidityBarometerVisibility
2:00 PM
Tue, Mar 31
86 °FBroken clouds.9 mph62%29.98 "HgN/A
1:00 PM84 °FBroken clouds.7 mph66%30.01 "HgN/A
12:00 PM84 °FBroken clouds.7 mph66%30.04 "HgN/A
11:00 AM81 °FPartly sunny.7 mph74%30.07 "HgN/A
10:00 AM79 °FPartly sunny.10 mph79%30.07 "HgN/A
9:00 AM73 °FPartly sunny.8 mph94%30.07 "Hg4 mi
8:00 AM72 °FPartly sunny.7 mph100%30.07 "Hg4 mi
7:00 AM70 °FFog.7 mph100%30.04 "Hg3 mi
6:00 AM70 °FPartly sunny.6 mph100%30.01 "Hg5 mi
11:00 PM
Mon, Mar 30
72 °FClear.1 mph94%30.04 "Hg10 mi
10:00 PM72 °FClear.2 mph94%30.04 "Hg10 mi
9:00 PM72 °FClear.No wind94%30.01 "Hg10 mi
8:00 PM72 °FClear.No wind94%30.01 "Hg10 mi
7:00 PM72 °FClear.3 mph94%29.95 "Hg10 mi
6:00 PM75 °FClear.2 mph89%29.95 "Hg10 mi
5:00 PM77 °FBroken clouds.6 mph79%29.95 "HgN/A
4:00 PM73 °FPartly sunny.5 mph89%29.95 "HgN/A
Weather by CustomWeather, © 2015

See weather overviewHow to use our weather pages